Yankton, SD

2:42 AM CDT on August 31, 2016 (GMT -0500)
Gurney Municipal

Weather History for KYKN - September, 2014

Change the Weather History Date:

Sunday, September 14, 2014

  Actual Average Record
Temperature  
Mean Temperature 54 °F -  
Max Temperature 64 °F 73 °F 98 °F (1955)
Min Temperature 44 °F 49 °F 35 °F (1989)
Degree Days  
Heating Degree Days 11    
Growing Degree Days 4 (Base 50)    
Moisture  
Dew Point 45 °F    
Average Humidity 70    
Maximum Humidity 93    
Minimum Humidity 49    
Precipitation  
Precipitation 0.00 in - - ()
Sea Level Pressure  
Sea Level Pressure 30.14 in    
Wind  
Wind Speed 7 mph (NE)    
Max Wind Speed 13 mph    
Max Gust Speed 18 mph    
Visibility 10 miles    
Events      
Averages and records for this station are not official NWS values.
T = Trace of Precipitation, MM = Missing Value Source: NWS Daily Summary

Daily Weather History Graph

Daily Weather History Graph

Search for Another Location

Airport or City:

Trip Planner

Search our weather history database for the weather conditions in past years. The results will help you decide how hot, cold, wet, or windy it might be!

Date:

Astronomy

Sep. 14, 2014 Rise Set
Actual Time 7:08 AM CDT 7:41 PM CDT
Civil Twilight 6:39 AM CDT 8:09 PM CDT
Nautical Twilight 6:05 AM CDT 8:43 PM CDT
Astronomical Twilight 5:31 AM CDT 9:17 PM CDT
Moon 11:26 PM CDT (9/14) 1:23 PM CDT (9/14)
Length of Visible Light 13h 29m
Length of Day
12h 32m
Waning Gibbous, 64% of the Moon is Illuminated
Sep 14
Waning Gibbous
Sep 15
Last Quarter
Sep 24
New
Oct 1
First Quarter
Oct 8
Full

Hourly Weather History & Observations

Time (CDT) Temp. Windchill Dew Point Humidity Pressure Visibility Wind Dir Wind Speed Gust Speed Precip Events Conditions
12:15 AM 51.8 °F - 42.8 °F 71% 30.14 in 10.0 mi SSW 8.1 mph - N/A   Clear
12:35 AM 51.8 °F - 42.8 °F 71% 30.14 in 10.0 mi SSW 9.2 mph - N/A   Clear
12:55 AM 51.8 °F - 42.8 °F 71% 30.14 in 10.0 mi SW 10.4 mph - N/A   Clear
1:15 AM 51.8 °F - 42.8 °F 71% 30.14 in 10.0 mi SSW 10.4 mph 16.1 mph N/A   Clear
1:35 AM 51.8 °F - 42.8 °F 71% 30.14 in 10.0 mi SSW 12.7 mph - N/A   Clear
1:55 AM 51.8 °F - 42.8 °F 71% 30.15 in 10.0 mi SSW 10.4 mph - N/A   Clear
2:15 AM 51.8 °F - 42.8 °F 71% 30.14 in 10.0 mi SW 11.5 mph - N/A   Clear
2:35 AM 51.8 °F - 44.6 °F 76% 30.15 in 10.0 mi SW 11.5 mph - N/A   Clear
2:55 AM 51.8 °F - 44.6 °F 76% 30.14 in 10.0 mi SW 10.4 mph - N/A   Clear
3:15 AM 51.8 °F - 44.6 °F 76% 30.16 in 10.0 mi NW 6.9 mph - N/A   Clear
3:35 AM 51.8 °F - 42.8 °F 71% 30.16 in 10.0 mi WSW 6.9 mph - N/A   Clear
3:55 AM 50.0 °F - 44.6 °F 82% 30.16 in 10.0 mi WSW 9.2 mph - N/A   Clear
4:15 AM 50.0 °F - 44.6 °F 82% 30.16 in 10.0 mi SW 8.1 mph - N/A   Clear
4:35 AM 48.2 °F - 42.8 °F 82% 30.16 in 10.0 mi SW 5.8 mph - N/A   Clear
4:55 AM 48.2 °F - 42.8 °F 82% 30.16 in 10.0 mi WSW 8.1 mph - N/A   Clear
5:15 AM 46.4 °F 42.9 °F 42.8 °F 87% 30.17 in 10.0 mi WSW 6.9 mph - N/A   Clear
5:35 AM 46.4 °F 43.5 °F 42.8 °F 87% 30.17 in 10.0 mi West 5.8 mph - N/A   Clear
5:55 AM 44.6 °F 42.2 °F 42.8 °F 93% 30.17 in 10.0 mi NW 4.6 mph - N/A   Clear
6:15 AM 44.6 °F 42.2 °F 41.0 °F 87% 30.17 in 10.0 mi WSW 4.6 mph - N/A   Clear
6:35 AM 44.6 °F 41.4 °F 39.2 °F 81% 30.17 in 10.0 mi WSW 5.8 mph - N/A   Clear
6:55 AM 44.6 °F 40.7 °F 41.0 °F 87% 30.18 in 10.0 mi West 6.9 mph - N/A   Clear
7:15 AM 44.6 °F 41.4 °F 39.2 °F 81% 30.18 in 10.0 mi WNW 5.8 mph - N/A   Clear
7:35 AM 44.6 °F 40.7 °F 39.2 °F 81% 30.19 in 10.0 mi WNW 6.9 mph - N/A   Clear
7:55 AM 44.6 °F 40.7 °F 41.0 °F 87% 30.18 in 10.0 mi NW 6.9 mph - N/A   Clear
8:15 AM 44.6 °F 39.7 °F 42.8 °F 93% 30.18 in 10.0 mi NW 9.2 mph - N/A   Clear
8:35 AM 46.4 °F 42.4 °F 42.8 °F 87% 30.18 in 10.0 mi NW 8.1 mph - N/A   Clear
8:55 AM 48.2 °F - 42.8 °F 82% 30.19 in 10.0 mi NW 8.1 mph - N/A   Clear
9:15 AM 48.2 °F - 42.8 °F 82% 30.19 in 10.0 mi NW 8.1 mph - N/A   Clear
9:35 AM 50.0 °F - 44.6 °F 82% 30.19 in 10.0 mi NNW 8.1 mph - N/A   Clear
9:55 AM 51.8 °F - 44.6 °F 76% 30.19 in 10.0 mi NNW 5.8 mph - N/A   Clear
10:15 AM 51.8 °F - 44.6 °F 76% 30.20 in 10.0 mi NNW 3.5 mph - N/A   Partly Cloudy
10:35 AM 53.6 °F - 44.6 °F 72% 30.20 in 10.0 mi Calm Calm - N/A   Partly Cloudy
10:55 AM 53.6 °F - 44.6 °F 72% 30.20 in 10.0 mi Calm Calm - N/A   Clear
11:15 AM 53.6 °F - 44.6 °F 72% 30.20 in 10.0 mi Calm Calm - N/A   Clear
11:35 AM 55.4 °F - 44.6 °F 67% 30.19 in 10.0 mi East 5.8 mph - N/A   Clear
11:55 AM 57.2 °F - 44.6 °F 63% 30.19 in 10.0 mi North 4.6 mph - N/A   Clear
12:15 PM 59.0 °F - 44.6 °F 59% 30.18 in 10.0 mi East 5.8 mph - N/A   Clear
12:35 PM 59.0 °F - 42.8 °F 55% 30.18 in 10.0 mi East 4.6 mph - N/A   Clear
12:55 PM 60.8 °F - 42.8 °F 52% 30.16 in 10.0 mi East 6.9 mph - N/A   Clear
1:15 PM 60.8 °F - 42.8 °F 52% 30.15 in 10.0 mi ENE 6.9 mph - N/A   Clear
1:35 PM 60.8 °F - 44.6 °F 55% 30.14 in 10.0 mi ENE 5.8 mph - N/A   Clear
1:55 PM 60.8 °F - 44.6 °F 55% 30.14 in 10.0 mi NE 3.5 mph - N/A   Clear
2:15 PM 62.6 °F - 46.4 °F 55% 30.13 in 10.0 mi NE 5.8 mph - N/A   Clear
2:35 PM 62.6 °F - 44.6 °F 52% 30.12 in 10.0 mi East 3.5 mph - N/A   Clear
2:55 PM 64.4 °F - 44.6 °F 49% 30.11 in 10.0 mi ENE 3.5 mph - N/A   Clear
3:15 PM 64.4 °F - 46.4 °F 52% 30.11 in 10.0 mi SE 3.5 mph - N/A   Clear
3:35 PM 64.4 °F - 46.4 °F 52% 30.11 in 10.0 mi ENE 3.5 mph - N/A   Clear
3:55 PM 64.4 °F - 46.4 °F 52% 30.10 in 10.0 mi ESE 3.5 mph - N/A   Clear
4:15 PM 64.4 °F - 46.4 °F 52% 30.09 in 10.0 mi SSE 5.8 mph - N/A   Clear
4:35 PM 64.4 °F - 46.4 °F 52% 30.09 in 10.0 mi ESE 6.9 mph - N/A   Clear
4:55 PM 64.4 °F - 46.4 °F 52% 30.08 in 10.0 mi East 4.6 mph - N/A   Clear
5:15 PM 64.4 °F - 48.2 °F 56% 30.08 in 10.0 mi ESE 4.6 mph - N/A   Clear
5:35 PM 64.4 °F - 48.2 °F 56% 30.08 in 10.0 mi ENE 5.8 mph - N/A   Clear
5:55 PM 64.4 °F - 48.2 °F 56% 30.08 in 10.0 mi ENE 3.5 mph - N/A   Clear
6:15 PM 64.4 °F - 50.0 °F 59% 30.08 in 10.0 mi ENE 3.5 mph - N/A   Clear
6:35 PM 64.4 °F - 50.0 °F 59% 30.08 in 10.0 mi ENE 4.6 mph - N/A   Clear
6:55 PM 62.6 °F - 51.8 °F 68% 30.09 in 10.0 mi ENE 4.6 mph - N/A   Scattered Clouds
7:15 PM 60.8 °F - 51.8 °F 72% 30.09 in 10.0 mi ENE 6.9 mph - N/A   Mostly Cloudy
7:35 PM 60.8 °F - 51.8 °F 72% 30.08 in 10.0 mi East 5.8 mph - N/A   Mostly Cloudy
7:55 PM 60.8 °F - 51.8 °F 72% 30.07 in 10.0 mi East 4.6 mph - N/A   Overcast
8:15 PM 60.8 °F - 51.8 °F 72% 30.08 in 10.0 mi NNE 4.6 mph - N/A   Overcast
8:35 PM 60.8 °F - 51.8 °F 72% 30.09 in 10.0 mi NE 6.9 mph - N/A   Overcast
8:55 PM 60.8 °F - 51.8 °F 72% 30.09 in 10.0 mi NE 6.9 mph - N/A   Overcast
9:15 PM 59.0 °F - 51.8 °F 77% 30.09 in 10.0 mi NE 6.9 mph - N/A   Overcast
9:35 PM 59.0 °F - 51.8 °F 77% 30.10 in 10.0 mi NE 5.8 mph - N/A   Overcast
9:55 PM 59.0 °F - 51.8 °F 77% 30.10 in 10.0 mi NE 5.8 mph - N/A   Overcast
10:15 PM 59.0 °F - 51.8 °F 77% 30.11 in 10.0 mi NNE 6.9 mph - N/A   Overcast
10:35 PM 57.2 °F - 48.2 °F 72% 30.11 in 10.0 mi NNE 11.5 mph - N/A   Overcast
10:55 PM 55.4 °F - 46.4 °F 72% 30.11 in 10.0 mi NE 12.7 mph - N/A   Overcast
11:15 PM 55.4 °F - 46.4 °F 72% 30.10 in 10.0 mi NE 9.2 mph - N/A   Overcast
11:35 PM 55.4 °F - 44.6 °F 67% 30.11 in 10.0 mi NNE 10.4 mph - N/A   Overcast
11:55 PM 55.4 °F - 44.6 °F 67% 30.10 in 10.0 mi NE 12.7 mph 18.4 mph N/A   Overcast